| time (UTC) | temp C | wind direction | speed KPH | gust KPH | rain 1hr cm | rain 24hr cm | rain mn cm | humidity % | barometer mb |
| 20260906023043 | 15 | 89 | 0.0 | 0.0 | 0.00 | 0.08 | 0.08 | 78 | 1011.5 |
| 20260906021516 | 15 | 28 | 0.0 | 0.0 | 0.00 | 0.08 | 0.08 | 80 | 1011.4 |
| 20260906020055 | 15 | 53 | 0.0 | 0.0 | 0.00 | 0.08 | 0.08 | 81 | 1011.3 |
| 20260906014530 | 14 | 314 | 0.0 | 0.0 | 0.00 | 0.08 | 0.08 | 82 | 1011.5 |
| 20260906013018 | 15 | 95 | 0.0 | 0.0 | 0.00 | 0.08 | 0.08 | 80 | 1011.4 |
| 20260906011548 | 15 | 95 | 0.0 | 0.0 | 0.00 | 0.08 | 0.08 | 78 | 1011.4 |
| 20260906010034 | 16 | 95 | 0.0 | 0.0 | 0.00 | 0.08 | 0.08 | 77 | 1011.4 |
| 20260906004519 | 16 | 95 | 0.0 | 0.0 | 0.00 | 0.08 | 0.08 | 75 | 1011.3 |
| 20260906003056 | 16 | 95 | 0.0 | 0.0 | 0.00 | 0.08 | 0.08 | 74 | 1011.1 |
| 20260906001533 | 16 | 95 | 0.0 | 0.0 | 0.00 | 0.08 | 0.08 | 73 | 1011.0 |
| 20260906000006 | 16 | 56 | 0.0 | 0.0 | 0.00 | 0.08 | 0.08 | 76 | 1011.0 |
| 20260905234546 | 16 | 140 | 0.0 | 0.0 | 0.00 | 0.08 | 0.08 | 82 | 1010.9 |
| 20260905233025 | 16 | 140 | 0.0 | 0.0 | 0.00 | 0.08 | 0.08 | 84 | 1010.7 |
| 20260905231504 | 17 | 140 | 0.0 | 0.0 | 0.00 | 0.08 | 0.08 | 83 | 1010.6 |
| 20260905230039 | 17 | 140 | 0.0 | 0.0 | 0.00 | 0.08 | 0.08 | 81 | 1010.5 |
| 20260905224532 | 18 | 140 | 0.0 | 0.0 | 0.00 | 0.08 | 0.08 | 79 | 1010.5 |
| 20260905223055 | 18 | 140 | 0.0 | 0.0 | 0.00 | 0.08 | 0.08 | 78 | 1010.3 |
| 20260905221536 | 18 | 140 | 0.0 | 0.0 | 0.00 | 0.08 | 0.08 | 75 | 1010.2 |
| 20260905220019 | 19 | 140 | 0.0 | 0.0 | 0.00 | 0.08 | 0.08 | 73 | 1010.0 |
| 20260905214551 | 20 | 208 | 0.0 | 0.0 | 0.00 | 0.08 | 0.08 | 71 | 1009.9 |
| 20260905213027 | 22 | 87 | 0.0 | 0.0 | 0.00 | 0.08 | 0.08 | 59 | 1009.7 |
| 20260905211508 | 21 | 121 | 0.0 | 0.0 | 0.00 | 0.08 | 0.08 | 63 | 1009.6 |
| 20260905210049 | 20 | 83 | 0.0 | 0.0 | 0.00 | 0.08 | 0.08 | 68 | 1009.4 |
| 20260905204516 | 20 | 160 | 0.0 | 0.0 | 0.00 | 0.08 | 0.08 | 73 | 1009.3 |
| 20260905203056 | 20 | 102 | 0.0 | 0.0 | 0.00 | 0.08 | 0.08 | 72 | 1009.2 |
| 20260905201541 | 20 | 196 | 0.0 | 0.0 | 0.00 | 0.08 | 0.08 | 74 | 1009.1 |
| 20260905200028 | 20 | 134 | 0.0 | 0.0 | 0.00 | 0.08 | 0.08 | 73 | 1009.1 |
| 20260905194505 | 21 | 183 | 0.0 | 0.0 | 0.00 | 0.08 | 0.08 | 70 | 1009.1 |
| 20260905193043 | 21 | 119 | 0.0 | 0.0 | 0.00 | 0.08 | 0.08 | 71 | 1009.0 |
| 20260905191517 | 22 | 145 | 0.0 | 0.0 | 0.00 | 0.08 | 0.08 | 63 | 1009.0 |
| 20260905190052 | 22 | 103 | 0.0 | 0.0 | 0.00 | 0.08 | 0.08 | 61 | 1009.0 |
| 20260905184547 | 21 | 80 | 0.0 | 3.2 | 0.00 | 0.08 | 0.08 | 64 | 1008.9 |
| 20260905183011 | 20 | 104 | 0.0 | 8.0 | 0.00 | 0.08 | 0.08 | 68 | 1008.9 |
| 20260905181548 | 20 | 84 | 0.0 | 6.4 | 0.00 | 0.08 | 0.08 | 68 | 1009.0 |
| 20260905180020 | 20 | 355 | 0.0 | 1.6 | 0.00 | 0.08 | 0.08 | 70 | 1009.0 |
| 20260905174600 | 20 | 88 | 0.0 | 0.0 | 0.00 | 0.08 | 0.08 | 70 | 1009.0 |
| 20260905173052 | 20 | 111 | 0.0 | 4.8 | 0.00 | 0.08 | 0.08 | 80 | 1008.9 |
| 20260905171513 | 19 | 103 | 1.6 | 12.9 | 0.00 | 0.08 | 0.08 | 81 | 1009.1 |
| 20260905170100 | 19 | 86 | 0.0 | 3.2 | 0.05 | 0.08 | 0.08 | 87 | 1009.1 |
| 20260905164526 | 18 | 117 | 0.0 | 0.0 | 0.08 | 0.08 | 0.08 | 89 | 1009.2 |
| 20260905163114 | 18 | 109 | 0.0 | 0.0 | 0.08 | 0.08 | 0.08 | 86 | 1009.3 |
| 20260905161557 | 18 | 84 | 0.0 | 6.4 | 0.08 | 0.08 | 0.08 | 82 | 1009.4 |
| 20260905160015 | 20 | 96 | 0.0 | 4.8 | 0.00 | 0.00 | 0.00 | 72 | 1009.3 |
| 20260905154548 | 21 | 59 | 0.0 | 0.0 | 0.00 | 0.00 | 0.00 | 72 | 1009.0 |
| 20260905153032 | 20 | 44 | 0.0 | 0.0 | 0.00 | 0.00 | 0.00 | 73 | 1009.0 |
| 20260905151517 | 20 | 19 | 0.0 | 0.0 | 0.00 | 0.00 | 0.00 | 73 | 1009.1 |
| 20260905150043 | 20 | 107 | 0.0 | 9.7 | 0.00 | 0.00 | 0.00 | 74 | 1009.0 |
| 20260905144523 | 20 | 32 | 0.0 | 1.6 | 0.00 | 0.00 | 0.00 | 75 | 1009.0 |
| 20260905143054 | 19 | 79 | 0.0 | 1.6 | 0.00 | 0.00 | 0.00 | 75 | 1008.9 |
| 20260905141537 | 18 | 88 | 0.0 | 1.6 | 0.00 | 0.00 | 0.00 | 77 | 1008.8 |
| 20260905134536 | 18 | 32 | 0.0 | 0.0 | 0.00 | 0.00 | 0.00 | 78 | 1008.5 |
| 20260905133010 | 18 | 61 | 1.6 | 14.5 | 0.00 | 0.00 | 0.00 | 79 | 1008.4 |
| 20260905131547 | 18 | 120 | 3.2 | 14.5 | 0.00 | 0.00 | 0.00 | 79 | 1008.1 |
| 20260905130030 | 17 | 45 | 0.0 | 16.1 | 0.00 | 0.00 | 0.00 | 80 | 1008.1 |
| 20260905124505 | 17 | 78 | 0.0 | 14.5 | 0.00 | 0.00 | 0.00 | 81 | 1007.9 |
| 20260905123049 | 17 | 51 | 0.0 | 0.0 | 0.00 | 0.00 | 0.00 | 83 | 1007.8 |
| 20260905121515 | 17 | 55 | 0.0 | 6.4 | 0.00 | 0.00 | 0.00 | 85 | 1007.9 |
| 20260905120053 | 16 | 110 | 0.0 | 0.0 | 0.00 | 0.00 | 0.00 | 86 | 1007.9 |
| 20260905114525 | 16 | 53 | 0.0 | 9.7 | 0.00 | 0.00 | 0.00 | 88 | 1007.9 |
| 20260905113002 | 15 | 105 | 0.0 | 0.0 | 0.00 | 0.00 | 0.00 | 90 | 1007.7 |
| 20260905111551 | 15 | 284 | 0.0 | 0.0 | 0.00 | 0.00 | 0.00 | 91 | 1007.6 |
| 20260905110037 | 15 | 21 | 0.0 | 4.8 | 0.00 | 0.00 | 0.00 | 92 | 1007.5 |
| 20260905104508 | 14 | 327 | 0.0 | 0.0 | 0.00 | 0.00 | 0.00 | 93 | 1007.3 |
| 20260905103043 | 14 | 339 | 0.0 | 0.0 | 0.00 | 0.00 | 0.00 | 93 | 1007.2 |
| 20260905101524 | 14 | 339 | 0.0 | 0.0 | 0.00 | 0.00 | 0.00 | 93 | 1007.1 |
| 20260905100004 | 13 | 337 | 0.0 | 0.0 | 0.00 | 0.00 | 0.00 | 93 | 1007.0 |
| 20260905094549 | 13 | 337 | 0.0 | 0.0 | 0.00 | 0.00 | 0.00 | 92 | 1006.8 |
| 20260905093016 | 13 | 337 | 0.0 | 0.0 | 0.00 | 0.00 | 0.00 | 91 | 1006.7 |
| 20260905091601 | 13 | 337 | 0.0 | 0.0 | 0.00 | 0.00 | 0.00 | 91 | 1006.6 |
| 20260905090030 | 13 | 337 | 0.0 | 0.0 | 0.00 | 0.00 | 0.00 | 91 | 1006.7 |
| 20260905084503 | 13 | 337 | 0.0 | 0.0 | 0.00 | 0.00 | 0.00 | 90 | 1006.5 |
| 20260905083106 | 14 | 337 | 0.0 | 0.0 | 0.00 | 0.00 | 0.00 | 90 | 1006.3 |
| 20260905081524 | 14 | 337 | 0.0 | 0.0 | 0.00 | 0.00 | 0.00 | 91 | 1006.4 |
| 20260905074538 | 14 | 348 | 0.0 | 0.0 | 0.00 | 0.00 | 0.00 | 91 | 1006.1 |
| 20260905073014 | 14 | 348 | 0.0 | 0.0 | 0.00 | 0.00 | 0.00 | 90 | 1006.1 |
| 20260905071551 | 14 | 347 | 0.0 | 1.6 | 0.00 | 0.00 | 0.00 | 90 | 1006.1 |
| 20260905070032 | 15 | 348 | 0.0 | 0.0 | 0.00 | 0.00 | 0.00 | 90 | 1006.3 |
| 20260905064509 | 15 | 348 | 0.0 | 1.6 | 0.00 | 0.00 | 0.00 | 89 | 1006.4 |
| 20260905063044 | 15 | 355 | 0.0 | 0.0 | 0.00 | 0.00 | 0.00 | 89 | 1006.4 |
| 20260905061519 | 15 | 355 | 0.0 | 0.0 | 0.00 | 0.00 | 0.00 | 89 | 1006.3 |
| 20260905060055 | 15 | 355 | 0.0 | 0.0 | 0.00 | 0.00 | 0.00 | 88 | 1006.3 |
| 20260905054557 | 15 | 355 | 0.0 | 0.0 | 0.00 | 0.00 | 0.00 | 88 | 1006.4 |
| 20260905053014 | 15 | 30 | 0.0 | 0.0 | 0.00 | 0.00 | 0.00 | 88 | 1006.4 |
| 20260905051552 | 15 | 30 | 0.0 | 0.0 | 0.00 | 0.00 | 0.00 | 87 | 1006.5 |
| 20260905050023 | 15 | 332 | 0.0 | 0.0 | 0.00 | 0.00 | 0.00 | 86 | 1006.5 |
| 20260905044506 | 16 | 332 | 0.0 | 0.0 | 0.00 | 0.00 | 0.00 | 85 | 1006.5 |
| 20260905043101 | 16 | 332 | 0.0 | 0.0 | 0.00 | 0.00 | 0.00 | 84 | 1006.5 |
| 20260905041528 | 16 | 332 | 0.0 | 0.0 | 0.00 | 0.00 | 0.00 | 83 | 1006.5 |
| 20260905040002 | 17 | 332 | 0.0 | 0.0 | 0.00 | 0.00 | 0.00 | 82 | 1006.6 |
| 20260905034536 | 17 | 332 | 0.0 | 0.0 | 0.00 | 0.00 | 0.00 | 80 | 1006.6 |
| 20260905033020 | 17 | 332 | 0.0 | 0.0 | 0.00 | 0.00 | 0.00 | 79 | 1006.5 |
| 20260905031556 | 17 | 333 | 0.0 | 0.0 | 0.00 | 0.00 | 0.00 | 79 | 1006.5 |
| 20260905030036 | 17 | 333 | 0.0 | 3.2 | 0.00 | 0.00 | 0.00 | 79 | 1006.6 |
| 20260905024506 | 17 | 343 | 0.0 | 3.2 | 0.00 | 0.00 | 0.00 | 79 | 1006.6 |